| time (UTC) | temp C | wind direction | speed KPH | gust KPH | rain 1hr cm | rain 24hr cm | rain mn cm | humidity % | barometer mb |
| 20260510183013 | 10 | 248 | 14.5 | 38.6 | 0.03 | 0.23 | 0.33 | 1 | 1017.2 |
| 20260510181513 | 10 | 247 | 12.9 | 24.1 | 0.03 | 0.23 | 0.33 | 1 | 1017.0 |
| 20260510173014 | 11 | 243 | 12.9 | 27.4 | 0.05 | 0.25 | 0.33 | 1 | 1016.7 |
| 20260510170013 | 11 | 232 | 16.1 | 30.6 | 0.00 | 0.23 | 0.18 | 4 | 1016.7 |
| 20260510164513 | 12 | 232 | 17.7 | 33.8 | 0.00 | 0.23 | 0.18 | 11 | 1016.7 |
| 20260510163013 | 12 | 239 | 16.1 | 32.2 | 0.00 | 0.23 | 0.18 | 15 | 1016.8 |
| 20260510161513 | 12 | 241 | 20.9 | 35.4 | 0.00 | 0.23 | 0.18 | 5 | 1016.7 |
| 20260510160013 | 12 | 237 | 19.3 | 33.8 | 0.00 | 0.23 | 0.18 | 2 | 1016.5 |
| 20260510154513 | 11 | 237 | 19.3 | 30.6 | 0.10 | 0.23 | 0.18 | 1 | 1016.6 |
| 20260510153013 | 10 | 238 | 24.1 | 35.4 | 0.15 | 0.23 | 0.18 | 1 | 1016.6 |
| 20260510151513 | 10 | 246 | 25.7 | 49.9 | 0.18 | 0.23 | 0.18 | 1 | 1016.9 |
| 20260510150013 | 10 | 245 | 19.3 | 38.6 | 0.15 | 0.20 | 0.15 | 1 | 1017.3 |
| 20260510144513 | 11 | 235 | 19.3 | 32.2 | 0.08 | 0.13 | 0.08 | 1 | 1016.9 |
| 20260510143013 | 11 | 249 | 22.5 | 48.3 | 0.03 | 0.05 | 0.03 | 1 | 1016.9 |
| 20260510140013 | 13 | 236 | 17.7 | 35.4 | 0.00 | 0.05 | 0.00 | 38 | 1016.8 |
| 20260510134513 | 13 | 245 | 19.3 | 32.2 | 0.00 | 0.05 | 0.00 | 35 | 1017.0 |
| 20260510133013 | 13 | 246 | 19.3 | 35.4 | 0.00 | 0.05 | 0.00 | 50 | 1017.0 |
| 20260510131513 | 13 | 247 | 20.9 | 35.4 | 0.00 | 0.05 | 0.00 | 48 | 1016.8 |
| 20260510123012 | 14 | 200 | 14.5 | 29.0 | 0.00 | 0.05 | 0.00 | 58 | 1017.1 |
| 20260510121512 | 13 | 220 | 14.5 | 30.6 | 0.00 | 0.05 | 0.00 | 53 | 1017.4 |
| 20260510113012 | 12 | 219 | 12.9 | 29.0 | 0.00 | 0.05 | 0.00 | 41 | 1017.9 |
| 20260510110012 | 11 | 223 | 16.1 | 29.0 | 0.00 | 0.05 | 0.00 | 13 | 1018.1 |
| 20260510103013 | 11 | 204 | 11.3 | 22.5 | 0.00 | 0.05 | 0.00 | 30 | 1018.1 |
| 20260510100012 | 11 | 196 | 12.9 | 30.6 | 0.00 | 0.05 | 0.00 | 16 | 1018.0 |
| 20260510093013 | 13 | 217 | 16.1 | 25.7 | 0.00 | 0.05 | 0.00 | 49 | 1017.9 |
| 20260510091513 | 12 | 218 | 12.9 | 33.8 | 0.00 | 0.05 | 0.00 | 53 | 1017.8 |
| 20260510090013 | 12 | 212 | 12.9 | 25.7 | 0.00 | 0.05 | 0.00 | 44 | 1017.7 |
| 20260510083013 | 12 | 231 | 14.5 | 29.0 | 0.00 | 0.05 | 0.00 | 50 | 1017.7 |
| 20260510081512 | 12 | 219 | 11.3 | 22.5 | 0.00 | 0.05 | 0.00 | 45 | 1017.7 |
| 20260510080013 | 11 | 221 | 11.3 | 27.4 | 0.00 | 0.05 | 0.00 | 39 | 1017.9 |
| 20260510073013 | 11 | 219 | 9.7 | 22.5 | 0.00 | 0.05 | 0.00 | 1 | 1017.6 |
| 20260510071513 | 10 | 221 | 4.8 | 16.1 | 0.00 | 0.05 | 0.00 | 1 | 1017.6 |
| 20260510070012 | 9 | 209 | 8.0 | 14.5 | 0.00 | 0.05 | 0.00 | 1 | 1017.4 |
| 20260510064512 | 9 | 198 | 4.8 | 17.7 | 0.00 | 0.05 | 0.00 | 1 | 1017.5 |
| 20260510063013 | 8 | 213 | 4.8 | 11.3 | 0.00 | 0.10 | 0.00 | 1 | 1017.4 |
| 20260510061513 | 8 | 207 | 3.2 | 11.3 | 0.00 | 0.30 | 0.00 | 1 | 1017.3 |
| 20260510060012 | 8 | 196 | 3.2 | 11.3 | 0.00 | 0.33 | 0.00 | 1 | 1017.1 |
| 20260510054512 | 8 | 190 | 3.2 | 11.3 | 0.00 | 0.43 | 0.00 | 1 | 1017.1 |
| 20260510053013 | 8 | 194 | 3.2 | 12.9 | 0.00 | 0.43 | 0.00 | 1 | 1017.1 |
| 20260510051512 | 8 | 202 | 4.8 | 12.9 | 0.00 | 0.43 | 0.00 | 1 | 1017.2 |
| 20260510050012 | 8 | 198 | 3.2 | 9.7 | 0.00 | 0.43 | 0.00 | 1 | 1017.2 |
| 20260510044512 | 8 | 201 | 3.2 | 9.7 | 0.00 | 0.43 | 0.00 | 1 | 1017.1 |
| 20260510043012 | 8 | 208 | 3.2 | 11.3 | 0.00 | 0.43 | 0.00 | 1 | 1017.1 |
| 20260510040012 | 8 | 210 | 4.8 | 8.0 | 0.00 | 0.43 | 0.00 | 1 | 1017.1 |
| 20260510033012 | 8 | 224 | 3.2 | 9.7 | 0.00 | 0.43 | 0.00 | 1 | 1017.2 |
| 20260510031512 | 8 | 221 | 3.2 | 9.7 | 0.00 | 0.43 | 0.00 | 1 | 1017.1 |
| 20260510030012 | 8 | 215 | 1.6 | 8.0 | 0.00 | 0.43 | 0.00 | 1 | 1017.3 |
| 20260510024512 | 8 | 230 | 3.2 | 6.4 | 0.00 | 0.43 | 0.00 | 1 | 1017.2 |
| 20260510023012 | 8 | 231 | 4.8 | 11.3 | 0.00 | 0.43 | 0.00 | 1 | 1017.3 |
| 20260510021512 | 8 | 235 | 9.7 | 19.3 | 0.00 | 0.43 | 0.00 | 1 | 1017.4 |
| 20260510020012 | 8 | 236 | 12.9 | 20.9 | 0.00 | 0.43 | 0.00 | 1 | 1017.5 |
| 20260510014512 | 8 | 246 | 12.9 | 27.4 | 0.00 | 0.43 | 0.00 | 1 | 1017.5 |
| 20260510013012 | 9 | 245 | 9.7 | 25.7 | 0.00 | 0.43 | 0.00 | 1 | 1017.6 |
| 20260510011512 | 9 | 235 | 6.4 | 14.5 | 0.00 | 0.43 | 0.00 | 1 | 1017.8 |
| 20260510010012 | 9 | 238 | 9.7 | 19.3 | 0.00 | 0.43 | 0.00 | 1 | 1017.9 |
| 20260510003012 | 9 | 230 | 6.4 | 17.7 | 0.00 | 0.43 | 0.00 | 1 | 1017.8 |
| 20260510001512 | 10 | 229 | 8.0 | 16.1 | 0.00 | 0.43 | 0.00 | 1 | 1018.0 |
| 20260510000012 | 10 | 235 | 8.0 | 19.3 | 0.00 | 0.43 | 0.00 | 1 | 1018.2 |
| 20260509234512 | 10 | 228 | 4.8 | 14.5 | 0.00 | 0.43 | 0.00 | 1 | 1018.3 |
| 20260509233012 | 10 | 232 | 3.2 | 11.3 | 0.00 | 0.43 | 0.00 | 1 | 1018.4 |
| 20260509231512 | 10 | 229 | 6.4 | 16.1 | 0.00 | 0.43 | 0.00 | 1 | 1018.3 |
| 20260509230012 | 9 | 213 | 4.8 | 12.9 | 0.00 | 0.43 | 0.00 | 1 | 1018.3 |
| 20260509224511 | 9 | 231 | 6.4 | 20.9 | 0.00 | 0.43 | 0.00 | 1 | 1018.3 |
| 20260509223011 | 9 | 213 | 3.2 | 12.9 | 0.00 | 0.43 | 0.00 | 1 | 1018.0 |
| 20260509221512 | 8 | 221 | 3.2 | 8.0 | 0.00 | 0.43 | 0.00 | 1 | 1017.9 |
| 20260509220013 | 9 | 218 | 3.2 | 9.7 | 0.00 | 0.43 | 0.00 | 1 | 1017.9 |
| 20260509214511 | 9 | 211 | 1.6 | 11.3 | 0.00 | 0.43 | 0.43 | 1 | 1017.8 |
| 20260509213011 | 9 | 216 | 1.6 | 6.4 | 0.00 | 0.43 | 0.43 | 1 | 1017.7 |
| 20260509211511 | 9 | 213 | 3.2 | 8.0 | 0.00 | 0.43 | 0.43 | 1 | 1017.8 |
| 20260509210012 | 9 | 226 | 3.2 | 9.7 | 0.00 | 0.43 | 0.43 | 1 | 1017.8 |
| 20260509204511 | 9 | 225 | 4.8 | 11.3 | 0.00 | 0.43 | 0.43 | 1 | 1017.5 |
| 20260509203012 | 9 | 229 | 9.7 | 19.3 | 0.00 | 0.43 | 0.43 | 1 | 1017.3 |
| 20260509201511 | 10 | 235 | 12.9 | 22.5 | 0.00 | 0.43 | 0.43 | 1 | 1017.0 |
| 20260509200011 | 10 | 232 | 16.1 | 30.6 | 0.00 | 0.43 | 0.43 | 1 | 1017.0 |
| 20260509193011 | 10 | 230 | 14.5 | 24.1 | 0.00 | 0.43 | 0.43 | 1 | 1016.5 |
| 20260509190011 | 10 | 241 | 16.1 | 33.8 | 0.00 | 0.43 | 0.43 | 1 | 1016.0 |
| 20260509184511 | 11 | 238 | 16.1 | 29.0 | 0.05 | 0.43 | 0.43 | 1 | 1015.9 |